Torna al catalogo

STARLINK-3988

AttivoComunicazioniVLEO
NORAD 52625·PAYLOAD·🇺🇸 United States

Lanciato May 14, 2022 da Cape Canaveral Space Force Station

Loading…

Prossimi Passaggi (prossime 24 ore)

TLE

AggiornatoSource: CelesTrak SupGP

Epoca: Sep 14, 2026, 22:20 UTC

1 52625C 22052AD  26257.93104167 -.00007752  00000+0 -22182-3 0  2571
2 52625  53.1571 128.2208 0001336  80.7303 153.0656 15.35399008    11

Traccia STARLINK-3988 in tempo reale con AllMySat

Download on the App Store